This demonstration page uses our WeatherBlox Daily Observations layout. Learn more.

Hourly Observations for December 7, 2019

Temp ( °F °C ) Dew Point ( °F °C ) Humidity (%) Winds ( mph kmh ) Pressure ( in mb ) Visibility ( mi km ) Precip ( " mm )
12:54 am 00:54 Clear 25 -3.9 19 -7.2 78 78 SSE 6 9 30.33 1027 10 16.0934 0 0
1:54 am 01:54 Clear 26 -3.3 19 -7.2 75 75 SE 5 7 30.31 1026 10 16.0934 0 0
2:54 am 02:54 Clear 26 -3.3 19 -7.2 75 75 S 6 9 30.3 1026 10 16.0934 0 0
3:54 am 03:54 Clear 28 -2.2 20 -6.7 72 72 S 9 15 30.28 1025 10 16.0934 0 0
4:54 am 04:54 Clear 28 -2.2 21 -6.1 75 75 S 6 9 30.27 1025 10 16.0934 0 0
5:54 am 05:54 Clear 27 -2.8 21 -6.1 78 78 S 7 11 30.26 1025 10 16.0934 0 0
6:54 am 06:54 Clear 30 -1.1 22 -5.6 72 72 SSW 12 19 30.25 1024 10 16.0934 0 0
7:54 am 07:54 Sunny 31 -0.6 23 -5 72 72 SSW 14 22 30.24 1024 10 16.0934 0 0
8:54 am 08:54 Sunny 33 0.6 23 -5 66 66 SSW 13 20 30.23 1024 10 16.0934 0 0
9:54 am 09:54 Sunny 37 2.8 24 -4.4 59 59 SSW 15 24 30.22 1023 10 16.0934 0 0
10:54 am 10:54 Sunny 42 5.6 26 -3.3 53 53 SSW 16 26 30.19 1022 10 16.0934 0 0
11:54 am 11:54 Sunny 47 8.3 28 -2.2 48 48 SSW 16 26 30.15 1021 10 16.0934 0 0
12:54 pm 12:54 Sunny 51 10.6 29 -1.7 43 43 S 16 26 30.11 1020 10 16.0934 0 0
1:54 pm 13:54 Sunny 54 12.2 30 -1.1 40 40 S 17 28 30.06 1018 10 16.0934 0 0
2:54 pm 14:54 Sunny 54 12.2 30 -1.1 40 40 S 18 30 30.01 1016 10 16.0934 0 0
3:54 pm 15:54 Sunny 53 11.7 30 -1.1 41 41 S 14 22 29.99 1016 10 16.0934 0 0
4:54 pm 16:54 Sunny 49 9.4 27 -2.8 43 43 S 15 24 29.97 1015 10 16.0934 0 0
5:54 pm 17:54 Clear 44 6.7 26 -3.3 49 49 S 12 19 29.97 1015 10 16.0934 0 0
6:54 pm 18:54 Clear 47 8.3 26 -3.3 44 44 S 14 22 29.96 1014 10 16.0934 0 0
7:54 pm 19:54 Clear 44 6.7 26 -3.3 49 49 S 13 20 29.96 1015 10 16.0934 0 0
8:54 pm 20:54 Clear 46 7.8 25 -3.9 44 44 S 17 28 29.95 1014 10 16.0934 0 0
9:54 pm 21:54 Clear 43 6.1 25 -3.9 49 49 S 13 20 29.94 1014 10 16.0934 0 0
10:54 pm 22:54 Clear 42 5.6 26 -3.3 53 53 S 15 24 29.91 1013 10 16.0934 0 0
11:54 pm 23:54 Clear 42 5.6 26 -3.3 53 53 SSW 15 24 29.88 1012 10 16.0934 0 0

Powered by AerisWeather